FDX5062 KMEM-KSTL

Flight info

Callsign FDX5062
Flight time 0h 48m
Altitude 31000
Route JTEEE5 ODATE BOOSH BOOSH3
Aircraft B738/M-SDE2E3FGHIRWXY/LB1

Departure

Time 2026-05-05 13:28
Airport Memphis International Airport (KMEM)

Arrival

Time 2026-05-05 14:17
Airport St. Louis Lambert International Airport (KSTL)
Time Latitude Longitude Altitude Speed Heading
2026-05-05 12:56 35.06328 -89.97619 330 ft 0 kts 270°
2026-05-05 13:16 35.06328 -89.97618 330 ft 2 kts 270°
2026-05-05 13:16 35.06329 -89.97588 330 ft 4 kts 258°
2026-05-05 13:16 35.06338 -89.97559 327 ft 4 kts 229°
2026-05-05 13:17 35.06356 -89.97545 330 ft 2 kts 180°
2026-05-05 13:17 35.06357 -89.97545 327 ft 0 kts 179°
2026-05-05 13:19 35.06356 -89.97545 327 ft 1 kts 179°
2026-05-05 13:20 35.06335 -89.97544 327 ft 6 kts 176°
2026-05-05 13:20 35.06287 -89.97538 330 ft 7 kts 174°
2026-05-05 13:20 35.06239 -89.97533 326 ft 7 kts 175°
2026-05-05 13:20 35.06191 -89.97530 327 ft 7 kts 179°
2026-05-05 13:21 35.06145 -89.97532 327 ft 7 kts 184°
2026-05-05 13:21 35.06100 -89.97535 327 ft 7 kts 182°
2026-05-05 13:21 35.06055 -89.97537 327 ft 6 kts 182°
2026-05-05 13:21 35.05998 -89.97546 328 ft 10 kts 204°
2026-05-05 13:22 35.05974 -89.97636 326 ft 14 kts 281°
2026-05-05 13:22 35.05998 -89.97769 329 ft 19 kts 281°
2026-05-05 13:22 35.06013 -89.97929 330 ft 19 kts 270°
2026-05-05 13:22 35.06014 -89.98087 327 ft 18 kts 271°
2026-05-05 13:23 35.06018 -89.98240 330 ft 18 kts 272°
2026-05-05 13:23 35.06020 -89.98387 327 ft 17 kts 269°
2026-05-05 13:23 35.05983 -89.98502 327 ft 15 kts 198°
2026-05-05 13:23 35.05878 -89.98504 324 ft 16 kts 178°
2026-05-05 13:24 35.05763 -89.98502 327 ft 16 kts 181°
2026-05-05 13:24 35.05651 -89.98507 326 ft 16 kts 183°
2026-05-05 13:24 35.05543 -89.98507 327 ft 15 kts 179°
2026-05-05 13:24 35.05439 -89.98510 327 ft 15 kts 182°
2026-05-05 13:25 35.05340 -89.98511 329 ft 14 kts 180°
2026-05-05 13:25 35.05245 -89.98509 326 ft 13 kts 180°
2026-05-05 13:25 35.05154 -89.98510 326 ft 13 kts 182°
2026-05-05 13:25 35.05071 -89.98542 328 ft 13 kts 205°
2026-05-05 13:26 35.04994 -89.98586 329 ft 12 kts 204°
2026-05-05 13:26 35.04946 -89.98626 330 ft 3 kts 234°
2026-05-05 13:26 35.04938 -89.98648 331 ft 3 kts 257°
2026-05-05 13:26 35.04934 -89.98673 331 ft 4 kts 258°
2026-05-05 13:27 35.04926 -89.98720 330 ft 7 kts 248°
2026-05-05 13:27 35.04879 -89.98741 330 ft 8 kts 182°
2026-05-05 13:27 35.04826 -89.98742 327 ft 7 kts 181°
2026-05-05 13:27 35.04776 -89.98742 329 ft 7 kts 180°
2026-05-05 13:28 35.04727 -89.98741 326 ft 7 kts 178°
2026-05-05 13:28 35.04518 -89.98729 328 ft 73 kts 178°
2026-05-05 13:28 35.03729 -89.98722 333 ft 154 kts 180°
2026-05-05 13:28 35.02542 -89.98653 982 ft 174 kts 173°
2026-05-05 13:29 35.01352 -89.98412 2049 ft 177 kts 168°
2026-05-05 13:29 35.00146 -89.98060 3080 ft 166 kts 169°
2026-05-05 13:29 34.99232 -89.97636 4429 ft 124 kts 160°
2026-05-05 13:29 34.98429 -89.97265 4695 ft 130 kts 189°
2026-05-05 13:30 34.97619 -89.97862 4669 ft 153 kts 229°
2026-05-05 13:30 34.96762 -89.98729 4845 ft 172 kts 203°
2026-05-05 13:30 34.95607 -89.99274 4981 ft 188 kts 212°
2026-05-05 13:30 34.94824 -90.00549 5052 ft 202 kts 255°
2026-05-05 13:31 34.94688 -90.02302 5151 ft 212 kts 255°
2026-05-05 13:31 34.94065 -90.03933 5234 ft 216 kts 237°
2026-05-05 13:31 34.93534 -90.05683 5257 ft 232 kts 265°
2026-05-05 13:31 34.93810 -90.07658 5365 ft 239 kts 276°
2026-05-05 13:32 34.93988 -90.09669 5480 ft 239 kts 270°
2026-05-05 13:32 34.94382 -90.11649 5634 ft 247 kts 292°
2026-05-05 13:32 34.95237 -90.13468 5834 ft 247 kts 293°
2026-05-05 13:32 34.96021 -90.15342 5981 ft 248 kts 291°
2026-05-05 13:33 34.96774 -90.17203 6166 ft 248 kts 291°
2026-05-05 13:33 34.97707 -90.18989 6351 ft 255 kts 310°
2026-05-05 13:33 34.99318 -90.19973 6558 ft 269 kts 350°
2026-05-05 13:33 35.01203 -90.20032 6745 ft 274 kts 354°
2026-05-05 13:34 35.03117 -90.20118 7016 ft 275 kts 354°
2026-05-05 13:34 35.05018 -90.20234 7251 ft 274 kts 353°
2026-05-05 13:34 35.06936 -90.20351 7473 ft 277 kts 353°
2026-05-05 13:34 35.08860 -90.20422 7771 ft 277 kts 359°
2026-05-05 13:35 35.10749 -90.20014 8037 ft 282 kts 13°
2026-05-05 13:35 35.12645 -90.19366 8296 ft 283 kts 13°
2026-05-05 13:35 35.14547 -90.18736 8546 ft 284 kts 12°
2026-05-05 13:35 35.16462 -90.18116 8814 ft 285 kts 12°
2026-05-05 13:36 35.18386 -90.17501 9092 ft 288 kts 12°
2026-05-05 13:36 35.20332 -90.16886 9686 ft 288 kts 11°
2026-05-05 13:36 35.22274 -90.16277 10309 ft 289 kts 11°
2026-05-05 13:36 35.24281 -90.15654 10628 ft 309 kts 11°
2026-05-05 13:37 35.26449 -90.14985 10844 ft 333 kts 11°
2026-05-05 13:37 35.28737 -90.14279 11032 ft 355 kts 11°
2026-05-05 13:37 35.31177 -90.13522 11513 ft 366 kts 11°
2026-05-05 13:37 35.33662 -90.12748 12177 ft 371 kts 11°
2026-05-05 13:38 35.36164 -90.11968 12939 ft 372 kts 11°
2026-05-05 13:38 35.38689 -90.11182 13657 ft 376 kts 11°
2026-05-05 13:38 35.41239 -90.10385 14413 ft 380 kts 11°
2026-05-05 13:38 35.43807 -90.09589 15206 ft 381 kts 11°
2026-05-05 13:39 35.46386 -90.08737 15949 ft 384 kts 12°
2026-05-05 13:39 35.48996 -90.07937 16568 ft 388 kts
2026-05-05 13:39 35.51624 -90.07233 17152 ft 395 kts
2026-05-05 13:39 35.54298 -90.06403 17796 ft 398 kts 13°
2026-05-05 13:40 35.56975 -90.05488 18394 ft 401 kts 12°
2026-05-05 13:40 35.59692 -90.04621 18993 ft 405 kts 11°
2026-05-05 13:40 35.62442 -90.03783 19629 ft 407 kts
2026-05-05 13:40 35.65238 -90.03519 20205 ft 402 kts 350°
2026-05-05 13:41 35.68010 -90.03950 20829 ft 402 kts 348°
2026-05-05 13:41 35.70811 -90.04290 21400 ft 407 kts 350°
2026-05-05 13:41 35.73648 -90.04539 21986 ft 410 kts 351°
2026-05-05 13:41 35.76461 -90.04765 22558 ft 411 kts 351°
2026-05-05 13:42 35.79331 -90.04964 23082 ft 416 kts 353°
2026-05-05 13:42 35.82248 -90.04955 23594 ft 421 kts 355°
2026-05-05 13:42 35.85185 -90.04832 24098 ft 424 kts 356°
2026-05-05 13:42 35.88140 -90.04671 24590 ft 427 kts 356°
2026-05-05 13:43 35.91119 -90.04508 25117 ft 428 kts 355°
2026-05-05 13:43 35.94095 -90.04359 25603 ft 429 kts 355°
2026-05-05 13:43 35.97080 -90.04222 26093 ft 430 kts 355°
2026-05-05 13:43 36.00081 -90.04095 26527 ft 432 kts 354°
2026-05-05 13:44 36.03049 -90.03979 26983 ft 432 kts 354°
2026-05-05 13:44 36.06043 -90.03865 27570 ft 429 kts 353°
2026-05-05 13:44 36.09003 -90.03751 28289 ft 423 kts 353°
2026-05-05 13:44 36.11930 -90.03638 28912 ft 419 kts 352°
2026-05-05 13:45 36.14832 -90.03529 29465 ft 416 kts 352°
2026-05-05 13:45 36.17716 -90.03422 30023 ft 413 kts 351°
2026-05-05 13:45 36.20577 -90.03315 30562 ft 410 kts 351°
2026-05-05 13:45 36.23407 -90.03208 30850 ft 404 kts 351°
2026-05-05 13:46 36.28958 -90.03003 30860 ft 403 kts 351°
2026-05-05 13:46 36.34586 -90.02804 30868 ft 406 kts 351°
2026-05-05 13:47 36.40242 -90.02598 30869 ft 408 kts 351°
2026-05-05 13:47 36.45920 -90.02386 30858 ft 408 kts 351°
2026-05-05 13:48 36.51559 -90.02173 30853 ft 408 kts 351°
2026-05-05 13:48 36.57232 -90.01957 30845 ft 407 kts 351°
2026-05-05 13:49 36.62890 -90.01744 30853 ft 406 kts 351°
2026-05-05 13:49 36.68544 -90.01531 30851 ft 406 kts 351°
2026-05-05 13:50 36.74157 -90.01321 30854 ft 407 kts 351°
2026-05-05 13:50 36.79825 -90.01108 30856 ft 408 kts 351°
2026-05-05 13:51 36.85514 -90.00896 30853 ft 409 kts 351°
2026-05-05 13:51 36.88320 -90.00783 30689 ft 399 kts 350°
2026-05-05 13:51 36.91049 -90.00666 30399 ft 385 kts 350°
2026-05-05 13:52 36.93689 -90.00553 29996 ft 375 kts 350°
2026-05-05 13:52 36.96232 -90.00451 29631 ft 366 kts 350°
2026-05-05 13:52 36.98747 -90.00355 29260 ft 358 kts 349°
2026-05-05 13:52 37.01230 -90.00266 28902 ft 358 kts 350°
2026-05-05 13:53 37.03753 -90.00186 28553 ft 370 kts 350°
2026-05-05 13:53 37.06411 -90.00112 28148 ft 394 kts 351°
2026-05-05 13:53 37.09183 -90.00024 27694 ft 399 kts 352°
2026-05-05 13:53 37.11944 -89.99916 27265 ft 396 kts 353°
2026-05-05 13:54 37.14692 -89.99801 26842 ft 393 kts 353°
2026-05-05 13:54 37.17415 -89.99687 26415 ft 391 kts 353°
2026-05-05 13:54 37.20118 -89.99577 26010 ft 388 kts 353°
2026-05-05 13:54 37.22775 -89.99472 25604 ft 385 kts 353°
2026-05-05 13:55 37.25446 -89.99368 25188 ft 383 kts 354°
2026-05-05 13:55 37.28104 -89.99266 24779 ft 381 kts 354°
2026-05-05 13:55 37.30750 -89.99158 24365 ft 379 kts 355°
2026-05-05 13:55 37.33381 -89.99048 23951 ft 377 kts 355°
2026-05-05 13:56 37.35995 -89.98947 23551 ft 375 kts 355°
2026-05-05 13:56 37.38597 -89.98849 23151 ft 373 kts 355°
2026-05-05 13:56 37.41188 -89.98752 22741 ft 371 kts 355°
2026-05-05 13:56 37.43764 -89.98653 22337 ft 370 kts 355°
2026-05-05 13:57 37.46294 -89.98557 21946 ft 368 kts 355°
2026-05-05 13:57 37.48854 -89.98460 21545 ft 367 kts 355°
2026-05-05 13:57 37.51397 -89.98364 21138 ft 365 kts 355°
2026-05-05 13:57 37.53933 -89.98267 20744 ft 364 kts 356°
2026-05-05 13:58 37.56467 -89.98170 20347 ft 363 kts 356°
2026-05-05 13:58 37.58984 -89.98073 19955 ft 362 kts 356°
2026-05-05 13:58 37.61493 -89.97976 19566 ft 360 kts 356°
2026-05-05 13:58 37.63997 -89.97879 19153 ft 360 kts 356°
2026-05-05 13:59 37.68950 -89.97689 18379 ft 356 kts 356°
2026-05-05 13:59 37.71421 -89.97595 17990 ft 355 kts 356°
2026-05-05 14:00 37.76338 -89.97406 17235 ft 351 kts 357°
2026-05-05 14:00 37.78766 -89.97311 16918 ft 348 kts 357°
2026-05-05 14:00 37.81187 -89.97217 16555 ft 347 kts 357°
2026-05-05 14:00 37.83598 -89.97125 16171 ft 346 kts 357°
2026-05-05 14:01 37.85967 -89.97034 15806 ft 345 kts 357°
2026-05-05 14:01 37.88358 -89.96941 15423 ft 344 kts 358°
2026-05-05 14:01 37.90750 -89.96848 15020 ft 344 kts 358°
2026-05-05 14:01 37.93143 -89.96755 14647 ft 343 kts 357°
2026-05-05 14:02 37.95489 -89.97020 14122 ft 337 kts 338°
2026-05-05 14:02 37.97627 -89.98236 13584 ft 336 kts 328°
2026-05-05 14:02 37.99746 -89.99505 13118 ft 338 kts 331°
2026-05-05 14:02 38.01853 -90.00702 12742 ft 333 kts 331°
2026-05-05 14:03 38.03940 -90.01872 12363 ft 323 kts 331°
2026-05-05 14:03 38.05992 -90.03025 12019 ft 321 kts 332°
2026-05-05 14:03 38.08027 -90.04169 11670 ft 320 kts 332°
2026-05-05 14:03 38.10047 -90.05303 11492 ft 313 kts 332°
2026-05-05 14:04 38.12017 -90.06408 11337 ft 305 kts 332°
2026-05-05 14:04 38.14026 -90.07213 11180 ft 305 kts 349°
2026-05-05 14:04 38.16140 -90.07351 11099 ft 302 kts 354°
2026-05-05 14:04 38.18209 -90.07502 10989 ft 294 kts 352°
2026-05-05 14:05 38.20202 -90.07704 10763 ft 290 kts 351°
2026-05-05 14:05 38.22174 -90.07921 10575 ft 277 kts 351°
2026-05-05 14:05 38.24039 -90.08129 10380 ft 262 kts 351°
2026-05-05 14:05 38.25806 -90.08325 10165 ft 248 kts 350°
2026-05-05 14:06 38.27474 -90.08507 9977 ft 235 kts 350°
2026-05-05 14:06 38.29083 -90.08686 9724 ft 230 kts 349°
2026-05-05 14:06 38.30667 -90.08867 9493 ft 226 kts 349°
2026-05-05 14:06 38.32197 -90.09037 9237 ft 215 kts 349°
2026-05-05 14:07 38.33655 -90.09199 8992 ft 206 kts 349°
2026-05-05 14:07 38.35067 -90.09356 8748 ft 201 kts 349°
2026-05-05 14:07 38.36446 -90.09535 8512 ft 198 kts 343°
2026-05-05 14:07 38.37760 -90.09887 8304 ft 195 kts 340°
2026-05-05 14:08 38.39075 -90.10281 8079 ft 194 kts 340°
2026-05-05 14:08 38.40385 -90.10678 7867 ft 193 kts 340°
2026-05-05 14:08 38.41696 -90.11072 7646 ft 194 kts 341°
2026-05-05 14:08 38.43008 -90.11463 7417 ft 193 kts 341°
2026-05-05 14:09 38.44320 -90.11855 7197 ft 194 kts 341°
2026-05-05 14:09 38.45637 -90.12246 6972 ft 194 kts 341°
2026-05-05 14:09 38.46956 -90.12639 6750 ft 195 kts 341°
2026-05-05 14:09 38.48260 -90.13026 6523 ft 195 kts 341°
2026-05-05 14:10 38.49576 -90.13415 6289 ft 194 kts 341°
2026-05-05 14:10 38.50889 -90.13801 6062 ft 192 kts 341°
2026-05-05 14:10 38.52190 -90.14187 5846 ft 191 kts 341°
2026-05-05 14:10 38.53480 -90.14566 5610 ft 189 kts 341°
2026-05-05 14:11 38.54749 -90.14941 5390 ft 186 kts 341°
2026-05-05 14:11 38.56002 -90.15313 5193 ft 185 kts 341°
2026-05-05 14:11 38.57249 -90.15682 4969 ft 183 kts 341°
2026-05-05 14:11 38.58499 -90.16051 4671 ft 188 kts 342°
2026-05-05 14:12 38.59799 -90.16436 4206 ft 193 kts 342°
2026-05-05 14:12 38.61099 -90.16822 3740 ft 196 kts 342°
2026-05-05 14:12 38.62440 -90.17221 3275 ft 200 kts 342°
2026-05-05 14:12 38.63812 -90.17627 2822 ft 204 kts 343°
2026-05-05 14:13 38.65208 -90.18047 2339 ft 208 kts 345°
2026-05-05 14:13 38.66451 -90.18854 2120 ft 195 kts 310°
2026-05-05 14:13 38.67114 -90.20245 2094 ft 175 kts 297°
2026-05-05 14:13 38.67724 -90.21537 2090 ft 168 kts 301°
2026-05-05 14:14 38.68352 -90.22803 2106 ft 169 kts 301°
2026-05-05 14:14 38.68988 -90.24075 2106 ft 170 kts 301°
2026-05-05 14:14 38.69616 -90.25347 2092 ft 168 kts 300°
2026-05-05 14:14 38.70228 -90.26592 2009 ft 171 kts 301°
2026-05-05 14:15 38.70871 -90.27902 1784 ft 174 kts 302°
2026-05-05 14:15 38.71518 -90.29211 1538 ft 171 kts 304°
2026-05-05 14:15 38.72130 -90.30458 1366 ft 158 kts 304°
2026-05-05 14:15 38.72698 -90.31609 1136 ft 145 kts 305°
2026-05-05 14:16 38.73209 -90.32644 923 ft 131 kts 305°
2026-05-05 14:16 38.73686 -90.33610 746 ft 128 kts 304°
2026-05-05 14:16 38.74146 -90.34560 599 ft 118 kts 307°
2026-05-05 14:16 38.74493 -90.35237 582 ft 61 kts 302°
2026-05-05 14:17 38.74607 -90.35472 581 ft 12 kts 300°
2026-05-05 14:17 38.74661 -90.35575 580 ft 16 kts 305°
2026-05-05 14:17 38.74758 -90.35649 578 ft 18 kts 359°
2026-05-05 14:17 38.74841 -90.35606 572 ft 13 kts 96°
2026-05-05 14:18 38.74794 -90.35505 574 ft 13 kts 126°
2026-05-05 14:18 38.74745 -90.35408 580 ft 14 kts 119°
2026-05-05 14:18 38.74694 -90.35299 579 ft 14 kts 122°
2026-05-05 14:18 38.74685 -90.35192 579 ft 13 kts 42°
2026-05-05 14:19 38.74770 -90.35118 579 ft 17 kts 33°
2026-05-05 14:19 38.74867 -90.35040 579 ft 16 kts 26°
2026-05-05 14:19 38.74947 -90.34978 581 ft 0 kts 33°